| time (UTC) | temp C | wind direction | speed KPH | gust KPH | rain 1hr cm | rain 24hr cm | rain mn cm | humidity % | barometer mb |
| 20260505031540 | 9 | 190 | 0.0 | 0.0 | 0.00 | 0.00 | 0.00 | 88 | 1012.2 |
| 20260505030020 | 9 | 269 | 0.0 | 0.0 | 0.00 | 0.00 | 0.00 | 88 | 1012.4 |
| 20260505024516 | 9 | 223 | 0.0 | 0.0 | 0.00 | 0.00 | 0.00 | 87 | 1012.3 |
| 20260505023102 | 10 | 242 | 0.0 | 0.0 | 0.00 | 0.00 | 0.00 | 87 | 1012.3 |
| 20260505021558 | 10 | 232 | 0.0 | 0.0 | 0.00 | 0.00 | 0.00 | 86 | 1012.3 |
| 20260505020050 | 10 | 242 | 0.0 | 0.0 | 0.00 | 0.00 | 0.00 | 87 | 1012.3 |
| 20260505014537 | 10 | 255 | 0.0 | 0.0 | 0.00 | 0.00 | 0.00 | 87 | 1012.3 |
| 20260505013017 | 10 | 248 | 0.0 | 0.0 | 0.00 | 0.00 | 0.00 | 86 | 1012.2 |
| 20260505011516 | 10 | 257 | 0.0 | 0.0 | 0.00 | 0.00 | 0.00 | 85 | 1012.0 |
| 20260505010111 | 10 | 235 | 0.0 | 0.0 | 0.00 | 0.00 | 0.00 | 84 | 1011.8 |
| 20260505004556 | 10 | 248 | 0.0 | 0.0 | 0.00 | 0.00 | 0.00 | 85 | 1011.5 |
| 20260505003054 | 10 | 242 | 0.0 | 0.0 | 0.00 | 0.00 | 0.00 | 85 | 1011.3 |
| 20260505001551 | 10 | 252 | 0.0 | 0.0 | 0.00 | 0.00 | 0.00 | 84 | 1011.0 |
| 20260505000042 | 10 | 200 | 0.0 | 1.6 | 0.00 | 0.00 | 0.00 | 83 | 1010.7 |
| 20260504234533 | 10 | 194 | 0.0 | 0.0 | 0.00 | 0.00 | 0.00 | 82 | 1010.5 |
| 20260504233019 | 10 | 195 | 0.0 | 1.6 | 0.00 | 0.00 | 0.00 | 82 | 1010.4 |
| 20260504231519 | 10 | 180 | 0.0 | 3.2 | 0.00 | 0.00 | 0.00 | 81 | 1010.3 |
| 20260504230018 | 10 | 184 | 0.0 | 0.0 | 0.00 | 0.00 | 0.00 | 81 | 1010.3 |
| 20260504224522 | 10 | 194 | 0.0 | 0.0 | 0.00 | 0.00 | 0.00 | 81 | 1010.3 |
| 20260504223015 | 10 | 243 | 0.0 | 0.0 | 0.00 | 0.00 | 0.00 | 81 | 1010.2 |
| 20260504221514 | 11 | 184 | 0.0 | 0.0 | 0.00 | 0.00 | 0.00 | 81 | 1010.3 |
| 20260504220013 | 11 | 194 | 0.0 | 0.0 | 0.00 | 0.00 | 0.00 | 81 | 1010.3 |
| 20260504214515 | 10 | 186 | 0.0 | 0.0 | 0.00 | 0.00 | 0.00 | 80 | 1010.3 |
| 20260504213009 | 11 | 171 | 0.0 | 3.2 | 0.00 | 0.00 | 0.00 | 79 | 1010.2 |
| 20260504211601 | 12 | 144 | 0.0 | 14.5 | 0.00 | 0.00 | 0.00 | 77 | 1010.3 |
| 20260504204559 | 11 | 206 | 0.0 | 11.3 | 0.00 | 0.00 | 0.00 | 77 | 1010.3 |
| 20260504203055 | 11 | 179 | 0.0 | 12.9 | 0.00 | 0.00 | 0.00 | 78 | 1010.1 |
| 20260504201557 | 11 | 186 | 0.0 | 9.7 | 0.00 | 0.00 | 0.00 | 78 | 1010.2 |
| 20260504194552 | 11 | 176 | 0.0 | 9.7 | 0.00 | 0.00 | 0.00 | 78 | 1010.3 |
| 20260504193051 | 11 | 193 | 0.0 | 16.1 | 0.00 | 0.00 | 0.00 | 78 | 1010.3 |
| 20260504191534 | 11 | 170 | 0.0 | 14.5 | 0.00 | 0.00 | 0.00 | 79 | 1010.5 |
| 20260504190032 | 11 | 205 | 0.0 | 8.0 | 0.00 | 0.00 | 0.00 | 78 | 1010.6 |
| 20260504184515 | 11 | 198 | 0.0 | 12.9 | 0.00 | 0.00 | 0.00 | 77 | 1010.6 |
| 20260504183013 | 11 | 175 | 0.0 | 1.6 | 0.00 | 0.00 | 0.00 | 78 | 1010.8 |
| 20260504181549 | 11 | 211 | 0.0 | 1.6 | 0.00 | 0.00 | 0.00 | 79 | 1010.8 |
| 20260504180049 | 11 | 214 | 0.0 | 3.2 | 0.00 | 0.00 | 0.00 | 79 | 1011.1 |
| 20260504174530 | 11 | 195 | 0.0 | 4.8 | 0.00 | 0.00 | 0.00 | 79 | 1011.1 |
| 20260504173029 | 11 | 227 | 0.0 | 6.4 | 0.00 | 0.00 | 0.00 | 80 | 1011.3 |
| 20260504171511 | 11 | 229 | 0.0 | 0.0 | 0.00 | 0.00 | 0.00 | 80 | 1011.4 |
| 20260504170109 | 10 | 231 | 0.0 | 0.0 | 0.00 | 0.00 | 0.00 | 81 | 1011.6 |
| 20260504120132 | 10 | 239 | 0.0 | 0.0 | 0.00 | 0.00 | 0.00 | 80 | 1013.1 |
| 20260504081527 | 7 | 239 | 0.0 | 0.0 | 0.00 | 0.00 | 0.00 | 86 | 1012.2 |
| 20260504050022 | 7 | 255 | 0.0 | 0.0 | 0.00 | 0.00 | 0.00 | 82 | 1011.5 |
| 20260504044512 | 8 | 260 | 0.0 | 0.0 | 0.00 | 0.00 | 0.00 | 81 | 1011.6 |
| 20260504043012 | 8 | 250 | 0.0 | 0.0 | 0.00 | 0.00 | 0.00 | 80 | 1011.6 |
| 20260504041507 | 8 | 249 | 0.0 | 0.0 | 0.00 | 0.00 | 0.00 | 78 | 1011.6 |
| 20260504040006 | 8 | 258 | 0.0 | 0.0 | 0.00 | 0.00 | 0.00 | 77 | 1011.5 |
| 20260504034508 | 8 | 262 | 0.0 | 0.0 | 0.00 | 0.00 | 0.00 | 76 | 1011.5 |
| 20260504033003 | 7 | 249 | 0.0 | 0.0 | 0.00 | 0.00 | 0.00 | 79 | 1011.3 |